Tracking 19280 objects as of 14-Nov-2018
HD Live streaming from Space Station
objects crossing your sky now

USA 173 DEB

Track USA 173 DEB now!
10-day predictions


NORAD ID: 28097
Int'l Code: 2003-054C
Perigee: 852.4 km
Apogee: 1,374.8 km
Inclination: 63.4 °
Period: 107.4 minutes
Semi major axis: 7484 km
RCS: Unknown
Launch date: December 2, 2003
Source: United States (US)
Launch site: AIR FORCE WESTERN TEST RANGE (AFWTR)

Note: This is SATELLITE DEBRIS
aabbcc
Your satellite tracking list
Your tracking list is empty




NASA's NSSDC Master Catalog

Two Line Element Set (TLE):
1 28097U 03054C   18312.17891328 0.00000000  00000-0  00000-0 0    05
2 28097  63.4175  97.9595 0349000 358.2855   1.7145 13.40750406    08
Source of the keplerian elements: McCants